Wind_Speed
9 4 7 14 14 15 15 8 9 10 14 10 11 10 13 14 3 9 8 8 10 7 11 23 26 30 32 27 28 26 21 20 20 22 17 16 16 10 11 13 8 8 5 6
7 8 14 16 16 13 11 5 9 6 10 11 8 7 15 15 7 1 3 10 15 9 9 12 19 31 32 31 28 26 21 23 22 24 17 17 15 9 11 11 8 12 8 8
9 11 15 16 17 10 11 5 8 10 4 3 3 2 9 3 3 5 11 12 9 12 13 14 12 27 31 31 32 28 24 22 23 22 17 16 7 6 10 6 11 10 10 10
10 15 16 13 7 6 7 11 9 7 7 3 3 4 3 6 5 6 9 15 11 14 16 13 16 20 30 30 33 29 26 24 21 20 21 16 13 11 12 11 14 13 10 12
13 12 11 9 8 9 10 8 9 4 5 6 7 2 3 1 7 11 14 10 14 16 21 18 19 22 30 33 33 32 28 25 21 22 20 17 15 14 8 13 17 15 15 10
14 15 12 8 10 7 7 6 9 4 1 4 5 2 4 7 7 4 5 9 19 13 21 21 29 27 32 32 31 33 32 29 23 22 20 19 16 12 5 3 16 14 17 16
13 20 17 15 8 6 6 4 4 5 3 7 5 1 7 15 18 27 19 22 20 14 18 22 21 23 31 32 32 32 34 30 27 23 22 21 16 10 7 5 15 23 18 17
10 13 14 13 14 9 7 6 5 7 4 6 5 7 7 13 12 25 23 21 18 24 17 21 20 25 33 35 34 32 34 30 30 26 23 20 18 14 12 14 12 10 2 14
8 15 20 19 10 11 8 6 9 7 6 6 6 6 7 11 9 8 19 23 24 21 17 22 19 28 34 35 36 35 35 32 32 29 24 20 17 15 12 14 13 10 2 2
10 10 13 18 7 9 10 7 3 4 3 7 7 4 5 5 7 12 12 22 11 15 20 21 21 27 31 34 38 36 37 35 35 30 26 22 20 18 17 13 11 12 8 5
8 8 12 8 4 9 2 4 5 2 3 3 4 4 6 11 6 9 11 16 11 1 14 18 16 27 31 31 34 34 33 32 31 29 27 24 23 22 20 17 15 16 11 6
2 4 5 12 10 11 6 11 10 5 9 4 4 6 6 8 11 13 9 11 9 10 4 15 16 27 27 30 33 32 32 33 34 31 30 28 24 22 21 20 18 13 13 12
8 4 4 11 7 8 6 6 5 6 5 9 4 6 6 6 15 13 15 11 8 8 6 17 18 17 25 29 31 31 32 31 33 31 28 28 27 23 22 20 19 19 19 18
8 4 5 6 9 6 7 8 9 12 6 5 8 7 8 9 20 14 10 12 10 6 8 17 17 17 21 20 23 30 30 34 32 31 29 28 29 25 24 22 21 23 19 18
13 5 8 10 12 19 16 16 14 18 10 6 11 7 5 6 15 17 18 13 11 8 9 15 16 14 23 27 30 22 30 34 34 32 29 23 27 27 24 20 14 16 19 15
10 6 8 10 13 15 21 19 18 18 13 9 16 11 9 11 10 18 18 16 11 10 7 17 17 16 19 20 22 27 30 32 31 28 25 27 26 22 17 18 17 15 13 14
7 6 6 7 11 15 14 8 11 15 16 9 15 11 6 6 8 13 10 9 8 8 8 9 16 17 22 26 28 28 28 28 29 27 21 17 18 16 15 15 15 13 12 13
12 10 4 9 3 8 7 11 16 11 9 7 24 15 13 10 11 8 8 8 3 10 8 10 12 18 25 26 26 28 27 26 26 25 20 15 14 15 11 12 11 9 9 9
14 9 8 9 8 15 22 16 9 12 25 18 13 10 14 8 8 6 4 18 17 21 8 12 22 26 27 28 31 28 25 23 23 23 20 18 15 14 13 11 10 9 9 10
11 12 9 9 8 22 12 7 15 13 15 12 9 15 14 4 3 4 6 11 6 13 15 17 26 27 28 31 33 29 26 25 24 24 22 20 17 16 14 12 10 10 9 8
9 5 9 12 6 8 5 12 8 2 7 16 10 12 10 11 5 4 10 11 13 13 19 26 20 17 24 29 31 27 29 27 27 23 20 18 17 15 12 10 8 6 6 6
4 5 2 2 1 9 5 5 3 6 14 13 17 9 7 3 9 10 8 9 11 6 15 21 20 21 25 31 29 25 25 25 22 20 20 18 16 15 14 12 10 6 6 9
4 4 4 2 3 2 4 2 4 7 10 12 14 16 8 6 6 13 10 7 12 8 9 16 22 22 22 28 30 25 24 23 23 23 22 19 14 12 8 12 10 9 12 13
3 5 5 5 9 7 5 3 3 3 7 16 16 16 10 7 13 6 14 16 16 19 30 26 26 21 21 25 28 28 28 26 25 21 18 16 17 14 13 13 13 13 15 10
8 4 10 7 12 11 3 4 4 6 7 16 16 18 15 8 9 3 10 18 21 31 22 16 26 23 22 28 27 28 29 26 23 21 20 20 19 18 17 16 15 14 10 8
6 9 6 5 7 2 4 4 4 7 9 13 11 19 16 12 2 10 7 12 12 1 3 10 22 29 29 30 30 28 26 24 24 22 19 17 16 12 20 17 16 16 15 12
Wind_Direction
246 209 239 248 253 259 278 236 324 184 199 196 196 217 188 158 304 228 179 193 181 215 167 168 149 147 150 150 150 150 154 161 160 161 154 161 173 163 178 178 170 159 167 178
256 235 236 255 270 283 302 337 305 278 182 190 216 246 170 148 172 250 262 199 198 202 158 174 159 152 152 155 156 154 161 167 169 174 169 164 179 173 186 190 192 174 119 143
234 245 248 242 255 262 286 249 265 267 217 204 204 152 128 343 211 167 253 242 216 196 173 175 182 162 156 157 158 157 161 168 172 175 173 167 177 177 188 203 209 177 157 143
241 253 255 279 264 264 270 294 290 336 4 275 157 261 207 171 237 226 247 219 194 206 187 182 187 170 163 163 162 163 161 173 178 180 177 179 186 197 209 200 199 197 179 166
254 266 275 264 257 270 269 283 293 243 275 316 287 136 53 46 223 192 207 233 220 216 179 186 183 182 167 163 165 173 169 173 184 187 187 184 194 214 177 189 187 194 179 184
274 283 280 261 295 255 291 268 308 284 358 313 291 186 173 186 221 192 240 197 224 233 185 178 187 184 167 166 165 171 177 174 184 193 195 193 194 202 222 313 219 208 197 197
264 261 260 260 275 282 313 309 306 322 335 244 230 62 223 216 188 192 200 211 213 219 190 176 180 183 162 166 168 173 178 177 183 193 198 197 194 187 204 200 166 199 201 211
277 291 244 238 213 193 218 203 188 253 257 265 97 227 247 210 223 189 206 211 208 220 191 181 173 173 164 167 171 175 178 179 182 193 205 211 214 206 212 216 206 209 271 220
237 270 289 299 199 174 241 259 235 262 276 298 251 264 38 223 272 183 187 202 204 187 172 174 172 166 169 169 172 175 178 178 185 191 201 213 210 210 221 204 220 247 183 172
228 246 258 277 173 211 167 213 321 309 259 269 293 322 185 93 97 84 77 70 341 183 163 165 171 170 166 166 172 174 180 179 184 190 196 204 210 214 220 229 235 240 233 157
321 230 255 254 238 208 193 216 252 228 193 220 300 283 215 183 177 107 103 119 222 47 175 165 168 166 162 162 168 172 174 176 183 188 196 203 206 215 220 227 237 236 237 202
156 241 273 227 243 266 238 197 192 151 277 240 207 272 149 184 127 126 129 130 188 245 228 175 162 168 160 156 164 170 172 177 184 187 198 202 206 209 219 222 225 232 236 239
332 314 359 333 313 258 249 285 250 199 193 235 216 259 216 220 139 150 147 190 221 227 282 182 160 167 165 166 161 169 173 181 184 188 201 200 206 205 215 224 230 231 238 246
7 303 217 231 259 309 311 342 312 282 292 239 237 249 210 219 155 154 181 181 193 238 192 150 157 165 164 142 158 173 177 181 180 190 199 199 207 212 214 223 232 236 241 250
354 327 334 326 322 310 298 297 285 259 249 281 265 275 169 145 146 186 189 176 191 205 136 158 156 162 162 164 176 182 176 182 181 188 196 203 214 218 218 224 232 243 243 234
326 318 340 323 326 314 311 278 283 290 287 286 298 264 206 193 150 155 173 178 168 148 144 162 157 165 165 169 183 167 174 182 184 188 199 212 211 204 225 227 237 250 248 246
298 294 314 283 324 334 293 290 255 271 292 268 284 278 231 141 155 142 138 99 7 139 148 135 154 163 166 172 173 168 177 187 194 199 204 189 192 214 221 230 235 241 247 252
275 278 266 279 27 263 254 329 335 325 308 326 295 315 326 138 137 126 98 117 191 255 156 132 151 150 157 164 165 174 175 175 185 193 193 202 207 221 214 221 225 233 238 254
237 243 257 251 225 264 281 295 311 336 321 300 264 5 355 126 94 91 167 139 189 247 161 144 155 152 155 159 167 169 171 177 184 187 193 201 207 209 213 210 207 217 232 255
302 231 218 240 224 251 286 340 329 343 296 6 1 38 358 216 100 232 213 174 87 32 148 141 157 167 169 166 169 169 176 184 188 190 193 194 197 205 199 204 221 233 247 257
286 281 226 235 251 285 51 343 315 156 311 337 322 70 27 343 246 192 77 34 43 48 313 151 163 171 164 162 164 163 167 172 184 187 191 190 193 194 199 197 197 204 225 242
307 316 329 342 126 272 11 0 46 338 326 334 336 9 20 79 141 115 118 80 65 343 20 132 127 133 146 157 159 153 159 169 174 180 186 189 177 172 171 178 185 204 238 253
351 25 313 301 245 39 40 40 72 47 341 311 320 313 346 108 114 148 140 142 92 32 30 284 140 143 152 160 161 153 161 168 169 160 155 158 166 175 176 199 190 218 242 250
353 56 354 337 335 290 290 153 105 49 320 305 317 308 333 53 125 186 134 145 132 162 213 232 151 153 157 166 165 162 159 161 159 160 165 172 179 187 186 195 217 223 251 255
294 161 217 222 238 261 209 62 19 327 313 299 315 319 329 34 116 164 185 173 172 188 202 193 157 152 161 166 164 163 160 164 164 171 181 187 191 198 203 213 223 235 242 216
249 260 281 272 259 182 170 195 204 292 267 272 299 317 324 318 114 153 249 233 217 117 304 317 166 154 162 166 161 165 168 172 176 184 187 194 200 210 213 214 226 240 248 254
Height
760 783 795 776 762 755 751 754 762 757 747 756 763 762 758 758 777 776 773 774 772 774 770 770 774 778 783 788 793 798 802 806 808 811 813 816 819 824 825 828 829 833 835 839
774 789 761 749 745 749 752 757 764 743 732 748 753 757 750 758 770 777 775 774 770 771 771 772 774 777 779 785 791 795 801 805 807 809 812 816 819 823 825 826 827 832 835 836
779 764 741 747 751 755 757 760 759 758 736 734 746 765 772 776 769 751 764 765 765 768 771 771 774 777 778 783 787 793 799 803 805 808 812 816 820 822 825 826 827 831 834 835
762 741 743 746 751 746 773 738 737 743 761 791 747 809 779 778 773 769 762 757 757 758 764 769 770 773 776 779 784 791 796 802 804 807 810 814 818 820 822 826 826 830 833 835
763 751 750 752 746 736 755 732 740 741 757 768 764 786 791 778 774 769 756 750 747 746 753 760 764 768 772 776 781 788 794 800 803 806 809 812 815 817 820 823 825 828 831 834
748 727 733 735 727 726 725 736 745 744 761 802 769 769 795 784 772 763 750 748 742 743 744 750 758 764 771 774 779 785 791 796 801 803 807 810 813 817 819 822 824 827 830 831
753 743 724 720 741 726 736 759 806 809 808 796 757 771 765 738 732 740 745 720 726 740 739 743 754 759 767 771 775 781 787 792 797 800 804 807 812 817 819 818 820 824 826 828
776 777 734 717 732 748 748 760 796 815 811 788 759 780 757 715 705 715 723 723 727 733 726 738 744 752 759 764 771 777 782 788 793 796 800 804 808 814 816 817 818 823 827 827
768 760 713 706 707 724 748 767 746 773 764 781 760 735 715 711 716 705 708 718 713 715 723 730 740 747 753 760 766 770 777 782 789 794 797 800 803 809 812 814 818 820 822 823
735 763 724 709 703 711 731 726 772 771 797 804 769 744 752 727 720 720 716 707 734 713 720 725 733 742 749 756 762 767 772 777 784 791 795 798 800 804 808 812 814 816 819 821
719 735 736 716 725 737 736 748 745 755 767 791 793 772 721 718 712 729 720 716 722 724 717 723 729 735 742 751 759 764 769 775 781 787 793 797 799 801 804 809 812 813 815 818
709 734 751 736 705 698 708 733 740 782 778 766 769 767 703 703 714 716 722 716 709 707 720 717 723 732 739 747 754 761 766 771 776 782 787 792 795 798 800 803 807 810 812 816
728 743 769 757 727 708 720 717 722 728 739 763 777 765 704 700 714 712 719 716 708 703 711 714 721 731 737 742 748 757 762 768 772 778 784 789 792 795 798 801 804 806 809 811
723 740 754 774 755 735 741 731 722 736 759 753 743 730 715 705 715 718 717 707 700 712 711 711 721 728 734 741 748 755 760 763 769 776 780 785 788 791 794 797 800 801 803 806
740 758 748 741 732 724 729 729 724 726 732 749 729 724 710 700 707 718 708 708 710 710 711 716 722 729 733 737 740 752 757 760 765 772 778 781 785 787 791 793 796 798 798 803
748 764 753 754 734 731 732 717 718 716 711 717 712 710 689 678 684 698 701 704 705 706 709 714 720 727 732 736 741 747 752 758 764 771 773 777 780 785 789 790 792 794 795 798
756 767 767 771 751 749 752 726 717 716 708 708 726 708 677 687 692 697 700 705 715 704 709 717 720 725 729 735 739 744 750 756 762 768 772 777 780 782 783 786 788 791 792 794
756 760 763 767 763 786 731 706 710 712 706 700 705 695 691 678 687 692 687 694 703 714 711 715 722 726 731 735 740 745 750 754 760 766 771 775 778 779 780 783 785 788 790 791
735 751 763 770 772 747 730 723 723 730 724 699 691 695 688 692 684 704 698 702 716 722 710 713 720 723 729 734 738 743 748 753 757 762 768 772 775 777 779 781 783 785 787 788
729 731 749 754 768 763 729 715 713 722 738 712 696 689 694 691 710 710 697 706 700 704 707 713 717 721 725 730 733 738 745 751 755 759 763 769 772 775 777 780 782 784 785 786
743 739 743 744 757 741 728 724 709 748 749 719 711 699 703 710 697 688 699 704 698 704 717 712 717 720 726 730 733 736 741 746 752 756 761 765 769 772 775 779 781 782 784 785
754 761 751 754 757 761 726 723 744 753 739 728 722 704 706 704 694 699 704 706 712 716 715 712 718 723 727 731 734 736 739 745 750 754 758 762 766 770 773 776 779 780 781 782
760 762 767 756 751 736 735 738 739 737 747 740 730 719 710 703 707 709 713 706 705 705 704 727 720 724 730 733 734 735 740 745 749 752 757 761 764 767 770 773 777 778 779 779
756 760 770 760 747 742 735 732 733 733 741 739 732 716 708 699 707 709 705 703 698 703 713 725 718 723 730 735 735 735 737 743 749 754 757 760 763 765 768 769 771 773 774 776
759 763 759 756 747 740 729 731 735 732 730 731 729 714 711 698 711 710 715 704 699 700 714 712 713 721 731 735 734 737 739 745 749 752 757 760 760 761 763 764 766 769 770 772
749 747 750 745 728 726 732 728 726 734 736 734 726 711 708 708 708 713 716 715 715 727 721 715 716 719 727 731 729 736 740 745 749 753 755 757 758 757 758 760 762 765 767 768